sat.trackr.live / text

‹ back to catalog

STARLINK-11675 [DTC]

NORAD 64235 · 2025-119C

PAYLOAD ACTIVE UNKNOWN

§ Identity

Operator
Country
US
Launch date
2025-06-03
Launch site
AFETR
Launch vehicle
Mass (kg)
RCS (m²)

Purposes: comms

External: N2YO · Heavens-Above · Gunter

§ Orbital elements

Epoch: 2026-05-25T04:16:04.487808Z

Period
91.67 min
Inclination
43.0015°
Eccentricity
0.0001459
Mean motion
15.70863900 rev/d
Perigee alt
355.4 km
Apogee alt
357.4 km
Semi-major
6,734.6 km
B*
1.3179e-3
RAAN
108.1284°
Arg perigee
244.0261°
Mean anomaly
116.0457°
Rev number
5,727

§ Raw data

STARLINK-11675 [DTC]1 64235U 25119C   26145.17782972  .00172387  00000+0  13179-2 0  99992 64235  43.0015 108.1284 0001459 244.0261 116.0457 15.70863900 57271

JSON: /api/v1/satellites/64235 · /tle

For live sub-satellite position, see the globe view (requires WebGL).

§ Visibility from observer

Set your observer location to see the next 7 days of passes ≥ 10°. The values pass through the URL so the page stays shareable.

No JS? Fill the form by hand. The geolocation button needs JavaScript.